Location: Newark
(33.9035°S, 18.4112°E)
Time: 18:50:00
(UTC+00:00)

STARLINK-1093 - Pass Details

Date: 22 January 2020
Orbit: 348 x 351 km, 53.0° (Epoch: 18 February)

Event Time Altitude Azimuth Distance (km) Brightness Sun altitude
Exits shadow 01:45:48 25° 95° (E) 772 4.8 -23.0°
Drops below altitude 10° 01:47:26 10° 118° (ESE) 1,335 6.6 -22.8°
Enters shadow 02:41:01 -73° 315° (NW) 12,543 10.5 -14.4°
